Regional Weather Roundup
Issued by NWS Kansas City/Pleasant Hill, MO

Home | Current Version | Previous Version | Graphics & Text | Print | Product List | Glossary Off
Versions: 1 2 3 4 5 6 7 8 9 10 11 12 13 14 15 16 17 18 19 20 21 22 23 24 25 26 27

000
ASUS43 KEAX 200110
RWREAX

WEATHER ROUNDUP FOR EASTERN KANSAS AND NORTHWEST MISSOURI
NATIONAL WEATHER SERVICE KANSAS CITY/PLEASANT HILL MO
700 PM CST FRI JAN 19 2018

KSZ040-057-103>105-MOZ028-029-037-043-200200-
...KANSAS CITY METROPOLITAN AREA...

CITY           SKY/WX    TMP DP  RH WIND       PRES   REMARKS
K.C. INTL      CLOUDY    44  27  51 S23G29    29.79S
K.C. DOWNTOWN  CLOUDY    45  28  51 S12G21    29.82R
LEES SUMMIT    CLOUDY    43  28  55 S17G25    29.83R
OLATHE - IXD   CLOUDY    43  27  53 S15       29.83R
OLATHE - OJC   CLOUDY    41  29  62 S13       29.83R WCI  34
LAWRENCE       CLOUDY    43  29  57 SE14      29.81R

$$

MOZ001>008-011>017-020>025-030>033-038>040-044>046-053-054-200200-
...NORTHERN AND CENTRAL MISSOURI...

CITY           SKY/WX    TMP DP  RH WIND       PRES   REMARKS
ST. JOSEPH     CLOUDY    41  30  65 S12       29.78R WCI  34
MOSBY          CLOUDY    45  28  53 S12       29.82S
WARRENSBURG    CLOUDY    43  28  56 S8        29.86R
WHITEMAN AFB   MOCLDY    42  27  55 S13       29.82S WCI  35
CLINTON        CLOUDY    43  27  52 S7        29.90S
SEDALIA        CLOUDY    48  28  46 S20       29.87F
WARSAW         NOT AVBL
CHILLICOTHE      N/A     43  28  55 S10       29.81S
KIRKSVILLE     CLOUDY    45  30  55 SW15      29.80R

$$

MOZ041-047>049-056>058-063>065-088>090-097-200200-
...EASTERN AND SOUTHERN MISSOURI...

CITY           SKY/WX    TMP DP  RH WIND       PRES   REMARKS
ST. LOUIS INTL CLOUDY    50  23  34 S9        29.92S
SPIRIT OF STL  CLOUDY    48  24  39 S10       29.92S
COLUMBIA       CLOUDY    46  25  43 S12       29.89R
JEFFERSON CITY CLOUDY    48  25  40 SE8       29.91R
ROLLA          CLOUDY    43  25  49 S12       29.93S
OSAGE BEACH    CLOUDY    45  26  47 S9        29.93S
SPRINGFIELD    CLOUDY    44  29  55 S12       29.92S
BRANSON        CLOUDY    45  28  53 S8        29.97F
JOPLIN         CLOUDY    46  31  55 S15       29.91S
WEST PLAINS    CLOUDY    42  29  59 S9        30.00R

$$

IAZ060-094-KSZ022-034>040-054-083-096-NEZ052-066-093-200200-
...KANSAS...SOUTHEAST NEBRASKA AND IOWA...

CITY           SKY/WX    TMP DP  RH WIND       PRES   REMARKS
TOPEKA         CLOUDY    46  29  51 S13       29.78R
MANHATTAN      CLOUDY    44  25  47 S6        29.75R
EMPORIA        CLOUDY    44  25  47 S15       29.80S
CHANUTE        CLOUDY    42  26  53 SE9       29.87R
WICHITA        CLOUDY    49  24  37 S13       29.79R
OMAHA          CLOUDY    40  28  62 S8        29.72R WCI  34
LINCOLN        CLOUDY    39  27  62 S3        29.74R
FALLS CITY     CLOUDY    40  28  62 S3        29.75R
LAMONI         CLOUDY    43  27  53 SW16      29.73R
DES MOINES     CLOUDY    42  27  55 SW9G20    29.70R

$$





USA.gov is the U.S. government's official web portal to all federal, state and local government web resources and services.